Stations météo

réclame
Mon MeteoGroup
Menorca/Mahon, Espagne (8314): Température de l'air & dewpoint: 11.11.2017 18:00:00 - 17.11.2017 18:00:00 (CET)Menorca/Mahon, Espagne (8314): Vitesse du vent & gusts: 11.11.2017 18:00:00 - 17.11.2017 18:00:00 (CET)Menorca/Mahon, Espagne (8314): Direction du vent: 11.11.2017 18:00:00 - 17.11.2017 18:00:00 (CET)Menorca/Mahon, Espagne (8314): reduced air pressure: 11.11.2017 18:00:00 - 17.11.2017 18:00:00 (CET)Menorca/Mahon, Espagne (8314): visibility: 11.11.2017 18:00:00 - 17.11.2017 18:00:00 (CET)
Date & Time tt [°C] td [°C] ff [km/h] ff [knt] fx [km/h] fx [knt] dd ppp [hPa] vv [km]
17.11.2017 18:00:00 14,4 8,1 5 3 - - NW 1018,4 -
17.11.2017 17:00:00 17,0 9,7 18 10 - - NNW 1017,9 -
17.11.2017 16:00:00 19,1 9,2 15 8 - - NW 1017,9 25
17.11.2017 15:00:00 19,2 7,0 16 9 - - NW 1018,2 -
17.11.2017 14:00:00 19,3 6,1 21 11 - - NNW 1018,7 25
17.11.2017 13:00:00 19,4 6,6 18 10 - - NNW 1018,9 25
17.11.2017 12:00:00 18,9 8,0 15 8 - - NNW 1019,4 -
17.11.2017 11:00:00 18,0 12,2 11 6 - - NW 1020,0 -
17.11.2017 10:00:00 16,4 12,3 11 6 - - NW 1020,0 25
17.11.2017 09:00:00 13,9 12,2 8 4 - - NNW 1020,0 -
17.11.2017 08:00:00 11,1 9,8 8 4 - - NW 1019,8 25
17.11.2017 07:00:00 10,8 9,4 9 5 - - WNW 1019,5 25
17.11.2017 06:00:00 10,5 9,3 11 6 - - NW 1019,5 -
17.11.2017 05:00:00 9,8 8,4 11 6 - - NNW 1019,8 -
17.11.2017 04:00:00 9,2 8,0 13 7 - - NW 1019,9 -
17.11.2017 03:00:00 8,7 7,1 5 3 - - NW 1020,1 -
17.11.2017 02:00:00 9,4 7,7 11 6 - - NNW 1020,2 -
17.11.2017 01:00:00 9,8 8,1 15 8 - - N 1020,4 -
17.11.2017 00:00:00 10,2 8,6 13 7 - - N 1020,9 -
16.11.2017 23:00:00 10,3 8,9 13 7 - - N 1020,8 -
16.11.2017 22:00:00 10,4 8,9 13 7 - - NNW 1020,8 20
16.11.2017 21:00:00 10,7 9,0 8 4 - - N 1020,7 -
16.11.2017 20:00:00 10,8 8,9 9 5 - - N 1020,4 -
16.11.2017 19:00:00 11,9 9,5 9 5 - - N 1020,2 22
16.11.2017 18:00:00 12,5 9,3 11 6 - - N 1019,8 -
16.11.2017 17:00:00 15,7 10,7 11 6 - - N 1019,3 -
16.11.2017 16:00:00 16,9 10,3 18 10 - - NNE 1019,3 25
16.11.2017 15:00:00 17,9 8,8 16 9 - - NNE 1019,2 -
16.11.2017 14:00:00 18,4 8,8 13 7 - - NNE 1019,3 25
16.11.2017 13:00:00 18,1 9,3 16 9 - - NNE 1019,7 25
16.11.2017 12:00:00 17,6 9,6 16 9 - - N 1020,2 -
16.11.2017 11:00:00 16,6 9,8 18 10 - - N 1020,6 -
16.11.2017 10:00:00 14,4 8,6 16 9 - - NNE 1020,4 25
16.11.2017 09:00:00 13,5 7,9 16 9 - - N 1019,9 -
16.11.2017 08:00:00 10,2 7,3 22 12 - - N 1019,3 25
16.11.2017 07:00:00 9,9 5,7 8 4 - - N 1019,3 22
16.11.2017 06:00:00 8,8 5,2 8 4 - - NNW 1018,9 -
16.11.2017 05:00:00 9,0 5,8 13 7 - - N 1018,9 -
16.11.2017 04:00:00 8,9 6,3 9 5 - - NNW 1018,8 -
16.11.2017 03:00:00 9,1 6,2 8 4 - - NNW 1019,1 -
16.11.2017 02:00:00 9,7 6,2 5 3 - - NW 1019,1 -
16.11.2017 01:00:00 9,7 6,2 8 4 - - NW 1019,1 -
16.11.2017 00:00:00 9,4 5,9 11 6 - - NW 1019,3 -
15.11.2017 23:00:00 9,2 5,2 5 3 - - WNW 1019,4 -
15.11.2017 22:00:00 9,8 5,6 9 5 - - NNW 1019,2 22
15.11.2017 21:00:00 9,7 5,6 13 7 - - N 1019,2 -
15.11.2017 20:00:00 9,8 5,2 11 6 - - NNW 1019,3 -
15.11.2017 19:00:00 9,9 4,3 4 2 - - NW 1019,0 24
15.11.2017 18:00:00 11,1 4,5 11 6 - - N 1018,6 -
15.11.2017 17:00:00 13,9 4,5 15 8 - - N 1018,0 -
15.11.2017 16:00:00 15,2 5,0 21 11 - - N 1017,9 28
15.11.2017 15:00:00 15,8 5,9 22 12 - - NNW 1017,7 -
15.11.2017 14:00:00 16,4 5,9 24 13 - - N 1018,0 27
15.11.2017 13:00:00 16,1 5,5 22 12 - - NNW 1018,4 28
15.11.2017 12:00:00 16,3 5,6 21 11 - - NNW 1018,9 -
15.11.2017 11:00:00 15,6 6,0 26 14 - - N 1018,8 -
15.11.2017 10:00:00 14,6 5,1 28 15 - - N 1018,9 -
15.11.2017 09:00:00 13,5 4,9 24 13 - - N 1018,8 -
15.11.2017 08:00:00 12,0 3,2 22 12 - - N 1018,7 22
15.11.2017 07:00:00 11,4 3,4 22 12 - - N 1018,3 20
15.11.2017 06:00:00 11,7 3,7 22 12 - - N 1017,8 -
15.11.2017 05:00:00 11,6 4,6 26 14 - - N 1017,7 -
15.11.2017 04:00:00 11,5 4,9 26 14 - - N 1017,9 -
15.11.2017 03:00:00 11,1 5,4 24 13 - - N 1018,0 -
15.11.2017 02:00:00 11,2 5,7 24 13 - - N 1018,3 -
15.11.2017 01:00:00 11,5 5,6 26 14 - - N 1018,4 -
15.11.2017 00:00:00 11,7 6,2 29 16 - - N 1018,8 -
14.11.2017 23:00:00 11,4 6,1 24 13 - - N 1018,8 -
14.11.2017 22:00:00 11,6 5,9 29 16 - - N 1019,1 15
14.11.2017 21:00:00 11,6 5,7 31 17 - - N 1018,6 -
14.11.2017 20:00:00 11,6 5,7 29 16 - - N 1018,1 -
14.11.2017 19:00:00 11,6 5,1 31 17 - - N 1018,0 15
14.11.2017 18:00:00 11,5 5,4 35 19 - - N 1017,1 -
14.11.2017 17:00:00 12,2 5,1 41 22 - - N 1016,5 -
14.11.2017 16:00:00 12,8 5,9 34 18 - - N 1016,2 20
14.11.2017 15:00:00 12,0 5,6 34 18 - - N 1016,3 -
14.11.2017 14:00:00 12,2 5,4 39 21 - - N 1016,4 20
14.11.2017 13:00:00 12,0 4,9 44 24 - - N 1016,4 20
14.11.2017 12:00:00 12,0 4,9 50 27 - - N 1016,5 -
14.11.2017 11:00:00 11,6 4,4 44 24 - - N 1016,5 -
14.11.2017 10:00:00 11,4 4,4 39 21 - - N 1016,2 15
14.11.2017 09:00:00 10,7 4,4 39 21 - - N 1015,8 -
14.11.2017 08:00:00 10,3 4,6 34 18 - - N 1015,1 15
14.11.2017 07:00:00 10,1 4,5 46 25 - - N 1014,5 15
14.11.2017 06:00:00 - - - - - - - - -
14.11.2017 05:00:00 - - - - - - - - -
14.11.2017 04:00:00 - - - - - - - - -
14.11.2017 03:00:00 - - - - - - - - -
14.11.2017 02:00:00 - - - - 81 44 - - -
14.11.2017 01:00:00 8,7 5,2 35 19 - - N 1013,2 -
14.11.2017 00:00:00 9,2 5,2 41 22 81 44 N 1012,8 -
13.11.2017 23:00:00 8,1 6,1 42 23 89 48 N 1013,1 -
13.11.2017 22:00:00 11,2 1,6 52 28 - - N 1012,7 18
13.11.2017 21:00:00 10,2 3,1 39 21 87 47 N 1012,7 -
13.11.2017 20:00:00 11,5 1,7 39 21 83 45 N 1012,6 -
13.11.2017 19:00:00 11,6 1,2 41 22 - - NNW 1012,8 18
13.11.2017 18:00:00 11,6 2,3 37 20 78 42 N 1012,5 -
13.11.2017 17:00:00 11,9 2,6 44 24 83 45 NNW 1011,6 -
13.11.2017 16:00:00 12,7 1,4 50 27 - - N 1011,3 18
13.11.2017 15:00:00 13,1 2,3 54 29 89 48 N 1010,0 -
13.11.2017 14:00:00 13,0 2,6 57 31 91 49 N 1010,2 18
13.11.2017 13:00:00 13,1 3,4 35 19 - - N 1011,4 17
13.11.2017 12:00:00 11,6 2,9 41 22 81 44 N 1011,7 -
13.11.2017 11:00:00 11,4 3,4 59 32 96 52 N 1011,4 -
13.11.2017 10:00:00 11,6 2,4 48 26 - - N 1011,3 17
13.11.2017 09:00:00 11,9 1,5 61 33 87 47 N 1011,1 -
13.11.2017 08:00:00 12,1 2,3 65 35 93 50 N 1010,4 17
13.11.2017 07:00:00 11,8 4,1 65 35 - - N 1009,8 12
13.11.2017 06:00:00 12,3 3,9 61 33 87 47 N 1010,1 -
13.11.2017 05:00:00 12,3 7,1 46 25 76 41 NNE 1009,8 -
13.11.2017 04:00:00 12,1 10,3 44 24 - - NNE 1009,8 -
13.11.2017 03:00:00 16,8 11,9 18 10 - - NW 1008,9 -
13.11.2017 02:00:00 16,8 11,3 21 11 - - W 1008,5 -
13.11.2017 01:00:00 16,7 10,8 24 13 - - W 1009,3 -
13.11.2017 00:00:00 16,8 10,9 24 13 - - W 1010,1 -
12.11.2017 23:00:00 16,4 11,1 18 10 - - W 1011,3 -
12.11.2017 22:00:00 13,4 10,4 11 6 - - WNW 1011,8 25
12.11.2017 21:00:00 13,4 10,2 5 3 - - WNW 1012,4 -
12.11.2017 20:00:00 14,8 10,6 4 2 - - NNW 1013,1 -
12.11.2017 19:00:00 16,4 11,1 8 4 - - WNW 1013,7 25
12.11.2017 18:00:00 16,8 12,1 11 6 - - WNW 1014,0 -
12.11.2017 17:00:00 17,3 12,0 8 4 - - WNW 1013,9 -
12.11.2017 16:00:00 19,5 12,0 16 9 - - W 1014,1 30
12.11.2017 15:00:00 20,1 11,4 13 7 - - WNW 1014,7 -
12.11.2017 14:00:00 19,7 12,1 18 10 - - WNW 1015,6 30
12.11.2017 13:00:00 19,9 12,9 21 11 - - W 1016,4 30
12.11.2017 12:00:00 20,0 11,1 16 9 - - WNW 1017,1 -
12.11.2017 11:00:00 19,5 12,2 16 9 - - W 1017,7 -
12.11.2017 10:00:00 19,2 12,8 15 8 - - WNW 1018,2 30
12.11.2017 09:00:00 17,4 13,1 9 5 - - WNW 1018,3 -
12.11.2017 08:00:00 14,5 12,5 8 4 - - NW 1018,4 30
12.11.2017 07:00:00 13,6 11,6 9 5 - - WNW 1018,3 20
12.11.2017 06:00:00 14,6 11,9 9 5 - - WNW 1018,0 -
12.11.2017 05:00:00 16,1 12,9 8 4 - - WNW 1018,2 -
12.11.2017 04:00:00 16,2 12,7 11 6 - - WNW 1018,2 -
12.11.2017 03:00:00 15,6 12,8 13 7 - - NW 1018,7 -
12.11.2017 02:00:00 14,3 12,7 8 4 - - NW 1019,1 -
12.11.2017 01:00:00 13,5 11,9 8 4 - - WNW 1019,4 -
12.11.2017 00:00:00 13,1 11,5 8 4 - - NW 1020,1 -
11.11.2017 23:00:00 12,8 11,2 8 4 - - NW 1020,3 -
11.11.2017 22:00:00 12,4 10,8 8 4 - - N 1021,1 12
11.11.2017 21:00:00 12,7 10,9 5 3 - - NNW 1021,1 -
11.11.2017 20:00:00 13,4 11,3 9 5 - - NNW 1021,2 -
11.11.2017 19:00:00 13,5 11,2 8 4 - - NW 1021,3 15
11.11.2017 18:00:00 14,4 11,4 4 2 - - NW 1021,1 -

tt = Température de l'air
td = dewpoint
ff = Vitesse du vent
fx = gusts
dd = Direction du vent
ppp = reduced air pressure
vv = visibility

stations d'obs. à proximité